Regional Weather Roundup
Issued by NWS

Home | Current Version | Previous Version | Text Only | Print | Product List | Glossary Off
Versions: 1 2 3 4 5 6 7 8 9 10 11 12 13 14 15 16 17 18 19 20 21 22 23 24 25 26 27 28 29 30 31 32 33 34 35 36 37 38 39 40 41 42 43 44 45 46 47 48 49 50

149
ASUS43 KDTX 241210
RWRMI
MICHIGAN HOURLY REGIONAL WEATHER ROUNDUP
NATIONAL WEATHER SERVICE DETROIT/PONTIAC MI
ISSUED BY NATIONAL WEATHER SERVICE GRAND RAPIDS MI
800 AM EDT MON JUL 24 2017

NOTE: "FAIR" INDICATES FEW OR NO CLOUDS BELOW 12,000 FEET WITH NO
SIGNIFICANT WEATHER AND/OR OBSTRUCTION TO VISIBILITY.

MIZ047>049-052>055-059>063-066>070-074>076-081>083-241300-
SOUTHEAST LOWER MICHIGAN

CITY           SKY/WX    TMP DP  RH WIND       PRES   REMARKS
ADRIAN         PTSUNNY   65  61  87 N13       29.91R
6HR MIN TEMP:  64; 6HR MAX TEMP:  70;

ALMA           CLOUDY    62  56  82 NW12      29.95R
ANN ARBOR      CLOUDY    64  60  87 NW10      29.90R
BAD AXE        CLOUDY    61  59  94 N13G18    29.89R
6HR MIN TEMP:  60; 6HR MAX TEMP:  63;

DETROIT CITY   CLOUDY    67  60  78 N13G20    29.88R
6HR MIN TEMP:  66; 6HR MAX TEMP:  71;

DETROIT        CLOUDY    68  62  81 N9        29.89R
6HR MIN TEMP:  65; 6HR MAX TEMP:  69;

FLINT          CLOUDY    62  56  80 N10       29.92R
6HR MIN TEMP:  62; 6HR MAX TEMP:  66;

GROSSE ILE     MOSUNNY   68  62  79 NW12      29.87R
6HR MIN TEMP:  66; 6HR MAX TEMP:  69;

HILLSDALE      CLOUDY    63  59  88 N14       29.91R
HOWELL         CLOUDY    61  58  89 N7        29.92R
6HR MIN TEMP:  61; 6HR MAX TEMP:  66;


CITY           SKY/WX    TMP DP  RH WIND       PRES   REMARKS
JACKSON        CLOUDY    64  57  78 N10       29.93R
6HR MIN TEMP:  63; 6HR MAX TEMP:  67;

LANSING        CLOUDY    62  55  77 N13       29.95R
6HR MIN TEMP:  61; 6HR MAX TEMP:  67;

MASON          PTSUNNY   62  57  84 N13G18    29.93R
MONROE         CLOUDY    66  62  87 N6        29.88R
6HR MIN TEMP:  64; 6HR MAX TEMP:  69;

MT. CLEMENS    CLOUDY    64  60  87 NW9       29.86R
6HR MIN TEMP:  64; 6HR MAX TEMP:  66;

PONTIAC        CLOUDY    63  58  83 NW13G21   29.89R
6HR MIN TEMP:  63; 6HR MAX TEMP:  68;

PORT HOPE        N/A     62  60  93 VRB3      29.86R
6HR MIN TEMP:  62; 6HR MAX TEMP:  66; 6HR PCP:  0.01;

PORT HURON     CLOUDY    64  59  82 NW9       29.87R
TRI CITIES     CLOUDY    62  58  86 N13G21    29.95R
6HR MIN TEMP:  61; 6HR MAX TEMP:  66;

YPSILANTI      PTSUNNY   66  62  87 NW15      29.89R
6HR MIN TEMP:  65; 6HR MAX TEMP:  68;

$$
MIZ043>046-050>051-056>058-064>065-071>073-077>080-241300-
SOUTHWEST LOWER MICHIGAN

CITY           SKY/WX    TMP DP  RH WIND       PRES   REMARKS
BATTLE CREEK   CLOUDY    63  61  93 N9        29.95R
6HR MIN TEMP:  62; 6HR MAX TEMP:  68;

BENTON HARBOR  CLOUDY    68  61  78 VRB5      29.96R
6HR MIN TEMP:  67; 6HR MAX TEMP:  69;

BIG RAPIDS     PTSUNNY   60  53  77 N8        29.98R
6HR MIN TEMP:  60; 6HR MAX TEMP:  63;

COLDWATER      CLOUDY    64  63  94 N8        29.94R
6HR MIN TEMP:  64; 6HR MAX TEMP:  69;

HOLLAND        CLOUDY    64  59  83 N5        29.97R
6HR MIN TEMP:  62; 6HR MAX TEMP:  66;

GRAND RAPIDS   CLOUDY    64  59  83 N9        29.96R
6HR MIN TEMP:  61; 6HR MAX TEMP:  66;

KALAMAZOO      CLOUDY    64  59  83 N9        29.96R
6HR MIN TEMP:  63; 6HR MAX TEMP:  68;

MARSHALL       PTSUNNY   64  61  93 N3        29.94R
6HR MIN TEMP:  62; 6HR MAX TEMP:  66;

MOUNT PLEASANT PTSUNNY   63  54  73 N5        29.96R
6HR MIN TEMP:  61; 6HR MAX TEMP:  65;

MUSKEGON       PTSUNNY   65  58  78 N12       29.99R
6HR MIN TEMP:  63; 6HR MAX TEMP:  65;

STURGIS        CLOUDY    64  62  93 N8        29.94R
6HR MIN TEMP:  62; 6HR MAX TEMP:  68;

$$
MIZ016>042-241300-
NORTHERN LOWER MICHIGAN

CITY           SKY/WX    TMP DP  RH WIND       PRES   REMARKS
ALPENA         CLOUDY    59  58  96 N9        29.96R
6HR MIN TEMP:  58; 6HR MAX TEMP:  60; 6HR PCP:  0.08;

BEAVER ISLAND  SUNNY     60  54  79 N9        30.04S
6HR MIN TEMP:  54; 6HR MAX TEMP:  60;

BELLAIRE       MOSUNNY   60  54  79 N7        30.01S
6HR MIN TEMP:  59; 6HR MAX TEMP:  61;

CADILLAC       PTSUNNY   61  53  75 N8        29.99R
CHARLEVOIX     MOSUNNY   62  55  78 N14       30.05S
GAYLORD        CLOUDY    58  53  84 N6        30.00R
6HR MIN TEMP:  57; 6HR MAX TEMP:  58; 6HR PCP: TRACE;

HOUGHTON LAKE  CLOUDY    59  55  87 N10       29.98R
6HR MIN TEMP:  57; 6HR MAX TEMP:  59; 6HR PCP: TRACE;

MANISTEE       SUNNY     63  55  75 N9        30.01R
OSCODA         CLOUDY    59  58  94 N13       29.92R
6HR MIN TEMP:  59; 6HR MAX TEMP:  60;

PELLSTON       SUNNY     60  54  80 NW9       30.03R
6HR MIN TEMP:  56; 6HR MAX TEMP:  60;

TRAVERSE CITY  PTSUNNY   62  55  77 N13       30.00R
6HR MIN TEMP:  61; 6HR MAX TEMP:  63;

LUDINGTON      CLOUDY    61  57  85 CALM      30.00R
6HR MIN TEMP:  59; 6HR MAX TEMP:  62;

$$
MIZ007>008-015-241300-
EASTERN UPPER MICHIGAN

CITY           SKY/WX    TMP DP  RH WIND       PRES   REMARKS
KINROSS        SUNNY     58  54  86 N10       30.03R
6HR MIN TEMP:  52; 6HR MAX TEMP:  58;

MACKINAC ISLAN SUNNY     59  56  90 N10G17    30.02R
6HR MIN TEMP:  56; 6HR MAX TEMP:  59;

NEWBERRY       SUNNY     53  52  97 NW6       30.06R
6HR MIN TEMP:  49; 6HR MAX TEMP:  53;

S. S. MARIE    SUNNY     59  52  77 CALM      30.02R
6HR MIN TEMP:  51; 6HR MAX TEMP:  59;

$$
MIZ004>006-011>014-085-241300-
CENTRAL UPPER MICHIGAN

CITY           SKY/WX    TMP DP  RH WIND       PRES   REMARKS
MANISTIQUE     SUNNY     54  51  90 N8        30.06R
6HR MIN TEMP:  49; 6HR MAX TEMP:  54;

ESCANABA       SUNNY     55  52  89 N6        30.08R
6HR MIN TEMP:  51; 6HR MAX TEMP:  56;

MENOMINEE      SUNNY     56  52  86 N6        30.08R
6HR MIN TEMP:  54; 6HR MAX TEMP:  61;

SAWYER-GWINN   SUNNY     48  46  93 CALM      30.09R
$$
MIZ001>003-009>011-084-241300-
WESTERN UPPER MICHIGAN

CITY           SKY/WX    TMP DP  RH WIND       PRES   REMARKS
IRON MOUNTAIN  SUNNY     52  48  86 NW5       30.09R
6HR MIN TEMP:  47; 6HR MAX TEMP:  55;

HOUGHTON       SUNNY     54  52  93 NW7       30.09R
6HR MIN TEMP:  45; 6HR MAX TEMP:  54;

COPPER HARBOR    N/A     58  50  75 W3        30.08R
6HR MIN TEMP:  50; 6HR MAX TEMP:  58;

IRONWOOD       FOG       52  52 100 CALM      30.12R VSB 1/4
6HR MIN TEMP:  52; 6HR MAX TEMP:  55;

$$

ABBREVIATIONS USED IN REMARKS
   TC - TEMPERATURE IN CELSIUS
  WCI - WIND CHILL INDEX
   HX - HEAT INDEX
  VSB - VISIBILITY





USA.gov is the U.S. government's official web portal to all federal, state and local government web resources and services.